TIME,DELAY(SENSOR),PRES,OXYGEN,RAWTEMP,T(OPTODE),TCPHASE,FLUOR,BETA(BETA700),BETA(BETA412),BETA(BETA440),CDOM,C(CSC),ED(ED412.40),ED(ED444.00),ED(ED489.70),ED(ED554.30),LU(LU411.80),LU(LU443.40),LU(LU489.60),LU(LU554.10),COMP,TILTX,TILTY,CHECK
1383883694,5809,798.4099731445312000,47.7032890319824200,652.1143188476562000,4.8872389793396000,53.7689094543457000,52,98,87,79,78,15287,2147751936,2147424091,2148013979,2147873408,2147637184,2147054290,2148256164,2147196544,1369,4,13,7566
1383887290,5805,853.4699707031250000,51.8939895629882800,659.8724975585938000,4.6321702003479000,53.2806816101074200,52,98,86,79,78,15285,2147753115,2147427520,2148015158,2147875355,2147635236,2147055469,2148262326,2147197458,3586,3,13,29460
1383890890,5809,866.8900146484375000,53.2972297668457000,661.1353149414062000,4.5905909538269040,53.1069183349609400,53,100,89,77,78,15289,2147751378,2147422482,2148017307,2147874468,2147636626,2147052864,2148261732,2147198381,50,4,13,257
1383894490,5811,892.5999755859375000,54.9507713317871100,663.5172729492188000,4.5121102333068850,52.9158782958984400,53,98,85,77,78,15291,2147751744,2147424018,2148013403,2147874258,2147634889,2147057152,2148261101,2147200329,3200,4,13,54819
1383898090,5811,900.8400268554688000,54.3713798522949200,664.7656860351562000,4.4709491729736330,53.0080299377441400,52,95,85,77,79,15290,2147753782,2147425929,2148015698,2147872950,2147638582,2147050276,2148261760,2147200283,100,4,13,1767
1383901690,5810,901.1799926757812000,54.2023200988769500,664.6328735351562000,4.4753279685974120,53.0328102111816400,52,98,82,79,79,15290,2147754532,2147424859,2148015789,2147875337,2147636288,2147056539,2148263469,2147201636,90,4,13,14376
1383905290,5806,926.2299804687500000,55.0002403259277340,667.8568115234375000,4.3689708709716800,52.9664993286132800,52,96,85,78,79,15286,2147755254,2147425380,2148015744,2147873206,2147637248,2147055296,2148259684,2147196982,3389,3,13,40457
1383908890,5807,933.0599975585938000,54.9826393127441400,667.1082153320312000,4.3936772346496580,52.9574508666992200,52,98,83,79,78,15285,2147752676,2147424210,2148013961,2147874157,2147638738,2147054784,2148262418,2147199387,70,4,13,39356
1383912490,5810,934.7700195312500000,54.8142089843750000,667.1140136718750000,4.3934860229492190,52.9835815429687500,52,98,84,79,79,15287,2147751899,2147425810,2148015606,2147874614,2147636251,2147054582,2148257060,2147198354,3184,3,13,52826
1383916090,5808,957.9899902343750000,57.1668701171875000,670.3375854492188000,4.2870450019836430,52.7104911804199200,52,108,83,79,78,15287,2147755648,2147424868,2148013595,2147872576,2147639981,2147048566,2148262784,2147199954,3486,4,13,15671
1383919690,5810,960.4600219726562000,56.9077491760253900,670.9749145507812000,4.2659888267517090,52.7523994445800800,51,97,85,78,78,15288,2147751945,2147424777,2148014811,2147869924,2147639524,2147050797,2148259721,2147199195,3496,4,13,8468
1383923290,5810,964.5499877929688000,56.4221115112304700,669.7736206054688000,4.3056769371032715,52.8036003112793000,52,98,87,78,78,15286,2147756928,2147423469,2148014665,2147871689,2147636928,2147055872,2148263177,2147203108,89,4,13,5552
1383926890,5811,983.1799926757812000,57.2597007751464840,672.6079711914062000,4.2120060920715330,52.7294502258300800,51,98,85,77,79,15288,2147754258,2147422308,2148014070,2147873170,2147640283,2147056841,2148261211,2147197750,276,4,13,25896
1383930490,5811,999.4000244140625000,57.6653099060058600,672.0535278320312000,4.2303371429443360,52.6699790954589840,52,98,85,77,78,15288,2147755748,2147423442,2148015460,2147875410,2147637933,2147053229,2148267446,2147197229,3487,4,13,16688
1383934090,5811,999.9799804687500000,57.1949806213378900,671.0297241210938000,4.2641792297363280,52.7185516357421900,52,96,86,77,78,15272,2147755958,2147422985,2148015131,2147872237,2147636800,2147054061,2148259081,2147198811,285,4,13,32982
1383937690,5807,1004.2000122070312000,56.4308586120605500,670.3524169921875000,4.2865538597106930,52.8082504272460940,52,99,84,78,79,15272,2147751341,2147421540,2148014756,2147872374,2147639250,2147052854,2148258349,2147196544,203,4,13,32949
1383941290,5811,997.2700195312500000,57.0628700256347660,670.9984130859375000,4.2652130126953125,52.7348289489746100,52,98,83,78,78,15274,2147757074,2147428982,2148013101,2147871936,2147636352,2147049545,2148263798,2147196937,303,4,13,22848
1383944890,5807,992.4899902343750000,57.1241607666015600,672.2984008789062000,4.2222418785095215,52.7472686767578100,52,95,88,78,78,15273,2147754093,2147424502,2148018331,2147876187,2147640164,2147054628,2148266898,2147196498,203,4,13,38736
1383948490,5807,996.4400024414062000,56.7082786560058600,672.8922119140625000,4.2026119232177730,52.8073883056640600,52,95,83,78,78,15271,2147752804,2147422107,2148016054,2147872493,2147640621,2147054400,2148265206,2147196617,3592,4,13,61691
1383952090,5809,997.8900146484375000,57.6904907226562500,673.0144042968750000,4.1985697746276855,52.6828002929687500,52,96,86,77,77,15273,2147755520,2147425078,2148014747,2147872950,2147640987,2147051986,2148262793,2147202898,3464,3,13,50829
1383955690,5808,1002.1799926757812000,56.5689010620117200,672.1972045898438000,4.2255878448486330,52.8179206848144500,52,97,84,78,79,15271,2147757686,2147426550,2148016448,2147873307,2147638509,2147050532,2148263533,2147200676,110,4,13,9184
1383959290,5808,999.2899780273438000,56.7749290466308600,671.0228881835938000,4.2644000053405760,52.7726898193359400,52,96,89,78,78,15271,2147753371,2147422811,2148015497,2147873993,2147639451,2147051072,2148257856,2147197760,26,4,13,41828
1383962890,5811,998.5499877929688000,56.5110702514648440,671.3021850585938000,4.2551689147949220,52.8095588684082000,53,95,82,78,79,15269,2147753014,2147427821,2148013750,2147868452,2147636516,2147050148,2148267072,2147200274,23,4,13,32533
1383966490,5810,997.9299926757812000,56.9493103027343750,671.2230224609375000,4.2577900886535645,52.7546081542968750,51,96,83,78,78,15269,2147754797,2147424018,2148014144,2147869622,2147637485,2147056027,2148261869,2147197522,112,4,13,12379
1383970090,5807,999.1300048828125000,56.5919609069824200,671.1768798828125000,4.2593140602111820,52.7992095947265600,52,97,82,77,78,15271,2147751670,2147424868,2148013458,2147873051,2147636269,2147051492,2148257865,2147199451,342,4,13,46185
1383973690,5812,1005.3400268554688000,56.9161415100097660,672.0004272460938000,4.2320938110351560,52.7673606872558600,52,98,84,77,78,15272,2147752722,2147420909,2148015232,2147872246,2147636480,2147053915,2148261302,2147202761,3133,4,13,38864
1383977290,5808,994.4600219726562000,56.8349914550781250,671.8284912109375000,4.2377758026123050,52.7779502868652340,52,95,84,78,78,15269,2147753984,2147420562,2148012726,2147875876,2147639314,2147061613,2148259181,2147202377,575,4,13,37515
1383980890,5809,999.8499755859375000,57.4875907897949200,672.6605834960938000,4.2102661132812500,52.7038383483886700,51,97,84,77,78,15271,2147751460,2147421878,2148014198,2147873920,2147634386,2147052726,2148264530,2147200457,160,4,13,51181
1383984490,5810,1001.3599853515625000,56.8233108520507800,673.1550292968750000,4.1939182281494140,52.7937812805175800,52,96,85,77,78,15272,2147755501,2147421750,2148018587,2147872960,2147637430,2147051849,2148257325,2147196836,3470,4,13,26703
1383988090,5810,1007.3900146484375000,57.4263992309570300,672.2407836914062000,4.2241477966308590,52.7065200805664060,51,95,86,79,77,15271,2147750957,2147424667,2148012818,2147869577,2147638061,2147052342,2148260096,2147197467,3455,4,13,29687
1383991690,5809,1000.0599975585938000,57.0613708496093750,672.8309936523438000,4.2046341896057130,52.7583198547363300,52,96,83,80,78,15270,2147759094,2147424164,2148016658,2147872722,2147638482,2147053531,2148263552,2147201389,168,4,13,47412
1383995290,5811,996.3499755859375000,57.3998794555664060,673.8159790039062000,4.1720561981201170,52.7314605712890600,51,96,85,78,78,15269,2147753234,2147423076,2148015414,2147871808,2147639780,2147050806,2148261595,2147200027,281,4,13,24049
1383998890,5810,997.2100219726562000,57.0724296569824200,674.4249877929688000,4.1519131660461430,52.7783393859863300,51,96,83,79,78,15270,2147753910,2147426889,2148014537,2147869778,2147639195,2147056694,2148263524,2147198134,79,4,13,53598
1384002490,5811,999.4299926757812000,57.2732315063476560,673.8140258789062000,4.1721229553222660,52.7457809448242200,51,102,82,78,78,15267,2147753673,2147426148,2148015616,2147870902,2147637970,2147051382,2148262948,2147202523,3252,4,13,26400
1384006090,5808,991.8499755859375000,57.9648895263671900,675.1049194335938000,4.1294159889221190,52.6719703674316400,51,96,82,80,78,15261,2147754678,2147425206,2148014208,2147873764,2147638244,2147051730,2148260461,2147200064,416,4,13,49762
1384009690,5808,998.4199829101562000,58.6778984069824200,675.2877807617188000,4.1233630180358890,52.5866317749023440,51,95,84,78,79,15272,2147751012,2147421549,2148012086,2147873865,2147639872,2147052516,2148261238,2147203017,566,3,13,49797
1384013290,5808,1002.3499755859375000,58.1213684082031250,674.0272216796875000,4.1650729179382320,52.6398811340332000,52,97,82,78,78,15259,2147752502,2147427117,2148015725,2147871076,2147638765,2147058048,2148256246,2147203126,3462,4,13,59727
1384016890,5810,1000.6799926757812000,57.7579803466796900,673.2600708007812000,4.1904430389404300,52.6733818054199200,51,114,83,78,79,15259,2147753526,2147421650,2148012525,2147873947,2147637046,2147049417,2148259328,2147201709,3096,4,13,8003
1384020490,5805,1006.2800292968750000,57.6559104919433600,672.7700195312500000,4.2066497802734375,52.6787986755371100,51,98,83,77,77,15181,2147756050,2147425353,2148015286,2147870610,2147636379,2147052507,2148259629,2147200978,75,4,13,60557
1384024090,5810,1005.9699707031250000,57.3231201171875000,671.9141845703125000,4.2349410057067870,52.7154502868652340,53,96,83,80,79,15168,2147753014,2147422509,2148012754,2147873142,2147639314,2147053750,2148260022,2147196982,269,4,13,36285
1384026955,5807,1008.2399902343750000,57.2564582824707000,672.0275878906250000,4.2311949729919430,52.7236595153808600,51,96,84,78,78,15283,2147752740,2147424320,2148012937,2147873755,2147638043,2147048850,2148263113,2147201353,3072,4,13,1130
